Location: Bandiment
(46.7490°N, 0.4590°E)
Time: 23:49:23
(UTC+00:00)

Daily predictions for brighter satellites

Satellite Brightness Start Highest point End
(mag) Time Altitude Azimuth Time Altitude Azimuth Time Altitude Azimuth
S3M 4.2 20:20:00 10° N 20:26:20 64° ENE 20:32:34 10° SSE
IRS-1A Rocket 4.5 20:24:26 10° SSE 20:29:49 60° ENE 20:35:16 10° N
Cosmos 2266 Rocket 4.1 20:25:16 10° S 20:31:31 65° E 20:37:52 10° NNE
SL-27 R/B 2.6 20:29:25 10° S 20:31:55 32° ESE 20:34:27 10° NE
SPOT 5 2.7 20:29:12 10° SSE 20:33:30 75° ENE 20:37:58 10° N
USA 245 4.2 20:30:41 10° SE 20:34:22 44° ENE 20:39:00 10° N
In-Cosmos 22 4.2 20:29:43 10° S 20:35:19 83° E 20:40:48 10° NNE
Cosmos 1953 4.4 20:35:53 10° NE 20:37:47 13° ENE 20:39:39 10° E
Cosmos 2360 Rocket 2.4 20:33:33 10° NNW 20:39:14 68° ENE 20:44:51 10° SE
Cosmos 1707 4.0 20:36:16 10° SSW 20:39:40 40° WNW 20:43:05 10° N
Okean O Rocket 3.1 20:35:45 10° SSW 20:39:48 36° W 20:43:51 10° NNW
Ariane Rocket 3.7 20:35:20 10° SE 20:40:04 41° ENE 20:44:50 10° N
Cosmos 2228 Rocket 3.6 20:36:26 10° SSE 20:40:44 44° E 20:45:05 10° NNE
BREEZE-M DEB (TANK) 4.4 20:37:50 10° W 20:42:03 67° SSW 20:55:45 10° ESE
Meteor 1-13 Rocket 4.4 20:36:45 10° SSW 20:42:31 80° WNW 20:48:11 10° N
Cosmos 1315 Rocket 4.5 20:43:47 10° SE 20:46:29 18° E 20:49:13 10° NE
BREEZE-M DEB (TANK) 3.7 20:36:31 10° WSW 20:47:09 63° NNW 20:50:16 10° ENE
Terra 2.0 20:45:07 10° SSE 20:49:43 58° ENE 20:54:22 10° N
SeaSat 1 2.8 20:46:18 10° SE 20:51:06 57° NE 20:55:55 10° NNW
Cosmos 1655 Rocket 4.1 20:46:08 10° S 20:52:26 65° E 20:58:46 10° NNE
Cosmos 1356 Rocket 3.5 20:50:42 10° S 20:54:49 60° E 20:58:58 10° NNE
MetOp-B 4.4 20:49:37 10° S 20:54:57 73° WSW 21:00:20 10° NNW
SL-16 R/B 3.0 20:49:51 10° NW 20:55:17 48° WSW 21:00:42 10° S
Cosmos 1862 Rocket 3.9 20:52:59 10° SSE 20:57:11 46° E 21:01:27 10° NNE
Cosmos 1300 2.5 20:54:36 10° N 20:58:11 75° E 21:01:43 10° SSE
Cosmos 1850 Rocket 4.0 20:53:01 10° SSW 20:58:14 88° ESE 21:03:28 10° NNE
Cosmos 968 Rocket 3.5 20:53:31 10° S 20:58:35 63° ESE 21:03:44 10° NNE
SJ 16-02 1.6 20:55:43 10° S 20:59:50 45° ESE 21:03:58 10° NNE
Cosmos 1346 Rocket 2.7 20:58:18 10° N 21:02:10 74° E 21:05:48 11° SSE
Cosmos 2333 Rocket 2.3 21:00:17 10° NNW 21:06:04 85° WSW 21:11:29 12° SSE
SL-14 R/B 3.1 21:02:23 10° S 21:06:09 87° E 21:09:59 10° N
Meteor 2-10 Rocket 3.9 21:04:52 10° NNW 21:10:23 71° W 21:15:37 10° S
Meteor 1-23 Rocket 4.5 21:07:15 10° SSW 21:12:55 75° WNW 21:18:42 10° N
USA 234 3.3 21:09:51 10° ENE 21:16:17 56° SE 21:22:40 10° SW
Resurs 01 Rocket 4.4 21:14:36 10° WSW 21:16:34 13° W 21:18:32 10° WNW
Cosmos 2237 Rocket 4.2 21:12:37 10° N 21:16:36 19° NE 21:20:33 10° E
Cosmos 1707 Rocket 3.6 21:12:39 10° S 21:17:05 90° SSE 21:21:33 10° N
Meteor 1-4 Rocket 2.4 21:15:13 15° SSE 21:17:27 46° E 21:20:22 10° NNE
Cosmos 1833 4.1 21:12:04 10° SSW 21:17:41 81° ESE 21:23:20 10° NNE
Cosmos 1814 Rocket 4.1 21:14:56 10° NNW 21:20:17 87° ENE 21:24:47 15° SSE
Cosmos 1741 Rocket 4.5 21:15:29 10° SSW 21:20:43 65° WNW 21:26:02 10° NNE
Okean 1-7 3.5 21:18:22 15° SSE 21:21:41 41° E 21:25:46 10° NNE
Cosmos 1932 4.4 21:15:40 10° SSW 21:21:58 73° ESE 21:28:15 10° NE
Cosmos 2322 4.2 21:19:57 10° NNW 21:25:29 50° ENE 21:29:58 15° SE
Meteor 1-16 Rocket 4.4 21:21:15 10° N 21:27:13 76° ENE 21:32:10 15° SSE
EXPRESS MD2 3.6 21:24:59 10° WNW 21:27:32 37° N 21:29:37 10° ENE
SPOT 3 Rocket 3.6 21:24:19 13° SSE 21:28:55 84° WSW 21:34:07 10° NNW
SL-4 R/B 2.6 21:25:17 10° WNW 21:29:05 53° NNE 21:33:07 10° E
Landsat 4 3.5 21:27:28 16° S 21:30:05 75° WSW 21:33:31 10° NNW
Cosmos 2315 Rocket 4.4 21:24:07 10° NNW 21:30:26 65° W 21:36:43 10° S
Cosmos 2333 4.4 21:25:43 10° NNW 21:31:30 71° WSW 21:36:13 16° SSE
ERS-1 Rocket 3.7 21:27:00 10° S 21:31:53 51° W 21:36:47 10° NNW
Cosmos 1758 4.5 21:30:09 10° NNW 21:33:49 39° W 21:37:30 10° SSW
Cosmos 1733 Rocket 3.6 21:30:31 10° NNW 21:34:51 56° W 21:38:54 12° S
Cosmos 2322 Rocket 3.3 21:30:11 10° NW 21:35:22 37° WSW 21:40:32 10° S
Cosmos 2297 Rocket 3.7 21:40:55 16° SE 21:42:49 19° E 21:46:35 10° ENE
Cosmos 1455 2.1 21:40:56 10° N 21:44:24 59° E 21:46:13 25° SSE
CZ-4C R/B 2.8 21:44:21 21° SE 21:45:56 26° ESE 21:50:12 10° ENE
Aureole 3 4.0 21:42:56 10° SSW 21:47:06 68° WNW 21:52:22 10° N
COSMOS 2455 3.5 21:44:04 17° SSE 21:47:58 35° ESE 21:53:22 10° NE
Meteor 2-20 Rocket 4.4 21:42:06 10° N 21:48:21 89° W 21:53:01 17° S
Iridium 51 4.5 21:46:18 16° S 21:49:45 86° W 21:53:56 10° N
Landsat 5 3.4 21:45:57 10° NNE 21:50:02 76° ESE 21:53:13 17° S
BlueWalker 3 1.7 21:47:58 10° SW 21:51:42 81° SSE 21:55:28 10° ENE
Cosmos 1908 Rocket 3.5 21:48:19 10° N 21:52:40 74° E 21:55:13 24° SSE
Spot 2 Rocket 4.4 21:49:23 12° S 21:53:54 43° W 21:58:46 10° NNW
ARIANE 5 R/B 3.7 21:51:36 18° ESE 21:54:03 32° ENE 21:57:55 10° N
USA 281 3.9 21:49:08 14° ESE 21:54:25 45° NE 22:00:37 10° NNW
Cosmos 2208 Rocket 4.3 21:50:05 10° NNW 21:55:12 57° ENE 21:58:28 22° SE
Cosmos 1782 Rocket 4.2 21:51:50 10° N 21:55:57 41° ENE 21:58:09 23° SE
ATLAS CENTAUR R/B 3.9 21:53:13 10° W 21:55:57 21° NW 21:58:46 10° NNE
GENESIS II 4.0 21:52:23 10° SW 21:56:01 83° NW 21:59:41 10° NE
Cosmos 2219 Rocket 2.5 21:50:26 10° NNW 21:56:03 62° WSW 21:59:59 20° S
Okean 3 4.2 21:52:51 10° SSW 21:56:53 49° WNW 22:00:58 10° N
Cosmos 1408 3.6 21:59:09 21° E 21:59:22 21° E 22:01:44 10° NE
H-2A R/B 4.3 21:57:47 14° ESE 22:00:11 22° ENE 22:03:25 10° NNE
GP-B 3.4 21:59:08 10° N 22:03:28 51° E 22:05:36 27° SSE
ATLAS 2AS CENTAUR R/B 3.6 21:57:32 10° NW 22:03:40 37° WSW 22:08:16 16° S
CZ-2C R/B 4.2 22:01:20 10° NNE 22:05:29 39° E 22:07:19 27° SSE
Cosmos 1300 Rocket 4.0 22:03:56 10° N 22:08:06 46° ENE 22:10:06 27° SE
Cosmos 1745 Rocket 4.2 22:04:38 21° SSE 22:08:49 58° E 22:15:03 10° NNE
COSMOS 2428 2.7 22:04:40 10° NNW 22:10:25 85° ENE 22:13:54 25° SSE
Cosmos 1953 2.7 22:10:13 10° NNW 22:13:56 52° W 22:15:58 24° SSW
Cosmos 1386 Rocket 4.5 22:09:43 20° S 22:14:10 73° E 22:20:19 10° NNE
Nadezhda 1 Rocket 4.0 22:09:17 10° N 22:15:35 75° E 22:19:26 24° SSE
NOSS 5 (C) 4.2 22:17:13 10° NW 22:20:21 66° SW 22:21:09 44° S
Cosmos 1486 Rocket 4.1 22:19:12 26° S 22:21:58 55° ESE 22:27:04 10° NNE
Cosmos 1315 Rocket 4.0 22:18:46 11° SW 22:22:19 39° WNW 22:26:06 10° N
Cosmos 2360 Rocket 4.1 22:18:35 10° NW 22:22:39 21° W 22:26:41 10° SSW
Cosmos 1242 Rocket 2.8 22:23:42 28° SW 22:24:42 42° WNW 22:27:20 10° N
Terra 4.0 22:24:32 10° SW 22:27:41 18° W 22:30:52 10° NW
NOSS 0 Rocket 4.0 22:22:23 10° NNW 22:28:40 82° ENE 22:32:23 26° SSE
Cosmos 1703 3.9 22:28:05 31° ESE 22:28:46 34° E 22:32:07 10° NNE
SeaSat 1 4.1 22:25:48 14° SSW 22:28:49 23° WSW 22:32:43 10° NW
Meteor 2-5 Rocket 4.4 22:28:49 26° SE 22:31:33 42° E 22:36:59 10° NNE
Cosmos 371 Rocket 3.4 22:30:44 30° S 22:32:54 59° ESE 22:37:39 10° NNE
Cosmos 1703 Rocket 4.2 22:31:14 18° SSW 22:34:22 52° WNW 22:38:44 10° N
NOSS 8 (H) 4.3 22:32:44 20° SW 22:35:18 88° ESE 22:38:24 10° NE
Cosmos 158 Rocket 4.0 22:30:45 10° NNW 22:36:01 72° WSW 22:38:32 31° S
SJ 16-02 3.8 22:35:07 10° WSW 22:38:24 21° WNW 22:41:43 10° N
ALOS 2 3.7 22:39:39 23° ESE 22:41:35 34° ENE 22:45:34 10° N
Cosmos 2333 Rocket 4.5 22:46:40 10° WNW 22:49:26 14° W 22:52:12 10° SW
CENTAUR R/B 3.2 22:48:39 26° SE 22:50:04 29° ESE 22:55:40 10° NE
Cosmos 1174 4.4 22:48:20 10° NNW 22:53:15 58° NE 22:55:02 31° ESE
SL-16 R/B 3.7 22:51:43 10° NNW 22:56:44 30° NE 23:01:20 12° ESE
PSLV R/B 3.8 22:55:04 10° N 22:59:04 79° WNW 23:00:30 38° SSW
USA 234 3.9 22:52:55 10° NE 22:59:20 59° NNW 23:05:42 10° WSW
Cosmos 2084 Rocket 3.3 22:59:46 40° SSW 23:01:08 66° SE 23:05:16 10° NE
Cosmos 2237 Rocket 2.1 22:55:49 10° NNW 23:01:32 86° ENE 23:04:13 33° SSE
Cosmos 2227 Rocket 2.7 23:04:47 33° SSE 23:06:42 44° ESE 23:12:03 10° NE
Sich 1 Rocket 4.2 23:03:28 10° N 23:07:41 45° ENE 23:09:07 33° ESE
Cosmos 2242 Rocket 3.9 23:05:38 31° SSW 23:07:43 63° WNW 23:12:16 10° N
SL-4 R/B 2.2 23:04:00 10° WNW 23:07:53 49° SW 23:08:18 47° SSW
Cosmos 1709 Rocket 4.1 23:04:07 26° SSW 23:07:57 78° W 23:14:20 10° N
Cosmos 773 Rocket 4.1 23:07:22 10° NNW 23:12:29 65° WSW 23:14:27 37° S
Cosmos 304 Rocket 3.8 23:10:22 29° SSW 23:12:47 73° WNW 23:17:34 10° NNE
Cosmos 1980 3.7 23:09:38 10° NNW 23:15:18 71° WSW 23:17:41 35° S
Cosmos 2098 Rocket 4.0 23:08:52 10° N 23:15:32 89° E 23:18:32 33° S
Spot 4 3.9 23:19:08 39° S 23:20:51 72° WSW 23:25:41 10° NNW
Spot 2 4.4 23:22:17 38° SSE 23:24:16 89° ENE 23:29:19 10° NNW
Meteor 1-24 Rocket 3.8 23:22:42 30° SSW 23:25:37 76° WNW 23:31:13 10° N
Cosmos 2297 Rocket 2.3 23:22:39 24° SW 23:26:12 74° WNW 23:31:52 10° NNE
Okean 1 Rocket 3.7 23:22:51 10° N 23:27:04 46° ENE 23:28:27 34° ESE
Cosmos 405 Rocket 2.7 23:23:48 10° NNW 23:27:34 70° W 23:28:11 56° SSW
Cosmos 332 Rocket 3.8 23:26:13 42° S 23:27:49 70° ESE 23:32:41 10° NNE
Cosmos 2184 Rocket 4.4 23:25:08 31° SSE 23:28:01 54° E 23:34:13 10° NNE
BlueWalker 3 3.6 23:26:41 10° W 23:30:09 34° NNW 23:33:37 10° NE
ARIANE 5 R/B 4.0 23:29:03 23° SW 23:30:27 27° W 23:34:10 10° NW
Cosmos 1408 4.4 23:31:08 15° W 23:32:02 17° WNW 23:34:05 10° NNW
Cosmos 1777 Rocket 4.2 23:30:35 29° SW 23:33:20 71° WNW 23:38:38 10° NNE
COSMOS 2455 3.7 23:27:56 10° WSW 23:33:44 48° NW 23:39:36 10° NNE
CZ-4C R/B 2.7 23:29:21 10° WSW 23:33:48 50° NW 23:39:28 10° NE
H-2A R/B 2.9 23:30:11 10° NNE 23:34:02 34° E 23:34:41 32° ESE
Cosmos 2219 3.8 23:33:05 33° SE 23:34:44 41° ESE 23:39:57 10° NE
H-2A R/B 3.2 23:33:46 35° SW 23:34:51 42° W 23:38:54 10° NNW
Cosmos 1892 2.3 23:36:25 70° SE 23:36:40 76° E 23:40:12 10° NNE
USA 281 3.8 23:36:00 28° SSW 23:38:56 43° WSW 23:45:10 10° NW
Cosmos 1538 Rocket 4.4 23:35:04 10° NNW 23:40:13 59° ENE 23:42:45 29° SE
Cosmos 1825 1.7 23:44:14 78° SSE 23:44:25 84° E 23:47:51 10° N
Cosmos 2154 Rocket 4.2 23:42:57 33° SSE 23:45:44 60° E 23:51:55 10° NNE
NOSS 3-2 (A) 3.5 23:45:45 37° SSE 23:47:06 45° ESE 23:52:46 10° NE
Cosmos 2263 Rocket 2.8 23:51:47 33° SE 23:53:25 40° ESE 23:58:36 10° NE
PSLV R/B 3.4 23:50:52 10° NNE 23:55:05 90° ENE 23:56:06 51° SSW
